Regional Weather Roundup
Issued by NWS

Home | Current Version | Previous Version | Text Only | Print | Product List | Glossary Off
Versions: 1 2 3 4 5 6 7 8 9 10 11 12 13 14 15 16 17 18 19 20 21 22 23 24 25 26 27 28 29 30 31 32 33 34 35 36 37 38 39 40 41 42 43 44 45 46 47 48 49 50

655
ASUS43 KMKX 292100
RWRWI

WISCONSIN REGIONAL WEATHER ROUNDUP
NATIONAL WEATHER SERVICE MILWAUKEE/SULLIVAN WI
400 PM CDT THU SEP 29 2016

NOTE: "FAIR" INDICATES FEW OR NO CLOUDS BELOW 12,000 FEET WITH NO
SIGNIFICANT WEATHER AND/OR OBSTRUCTIONS TO VISIBILITY.

WIZ001-002-006>008-014>016-023>028-292200-
NORTHWEST WISCONSIN

CITY           SKY/WX    TMP DP  RH WIND       PRES   REMARKS
SUPERIOR ARPT  MOSUNNY   58  51  77 NE10G16   30.49F
ASHLAND        MOSUNNY   60  51  72 NE13G25   30.49S
HAYWARD        MOSUNNY   65  51  60 N15       30.44F
SIREN          SUNNY     64  48  55 N3        30.44F
CUMBERLAND     SUNNY     64  46  52 N6        30.42F
RICE LAKE      SUNNY     69  49  48 CALM      30.43F
CHETEK         NOT AVBL
LADYSMITH      SUNNY     70  51  51 CALM      30.43F
EAU CLAIRE     NOT AVBL
MENOMONIE      SUNNY     73  49  43 N3        30.40F HAZE
NEW RICHMOND   MOSUNNY   68  49  50 NE7       30.42F
OSCEOLA        MOSUNNY   67  51  55 CALM      30.45F
$$

WIZ003>005-009-010-017-018-292200-
NORTH CENTRAL WISCONSIN

CITY           SKY/WX    TMP DP  RH WIND       PRES   REMARKS
MANITOWISH WTR NOT AVBL
ARBOR VITAE    SUNNY     65  54  67 N7        30.44S
WOODRUFF       SUNNY     65  54  67 N7        30.44S
RHINELANDER    SUNNY     68  54  60 NE8       30.41F
EAGLE RIVER    SUNNY     65  51  60 N8        30.43S
LAND O LAKES   SUNNY     64  53  68 NE7       30.46F
PHILLIPS       MOSUNNY   66  52  60 NE6       30.42S
TOMAHAWK       SUNNY     68  51  53 N7        30.41F
MEDFORD          N/A     69  50  50 E3        30.39F HAZE
MERRILL        SUNNY     70  51  51 E9        30.39F
$$

WIZ029-030-035-036-043>047-292200-
CENTRAL WISCONSIN

CITY           SKY/WX    TMP DP  RH WIND       PRES   REMARKS
WAUSAU         SUNNY     71  49  45 NE9       30.36F
MOSINEE        MOSUNNY   70  48  46 NE14      30.38F
MARSHFIELD     SUNNY     72  50  45 NE12      30.36F
STEVENS POINT  SUNNY     70  48  44 E13       30.36S
WAUPACA        MOSUNNY   73  50  44 N8        30.34F
WAUTOMA        NOT AVBL
WISC RAPIDS    MOSUNNY   74  48  39 NE13      30.36F
CAMP DOUGLAS   NOT AVBL
$$

WIZ011>013-019>022-031-037>040-048>050-292200-
NORTHEAST WISCONSIN

CITY           SKY/WX    TMP DP  RH WIND       PRES   REMARKS
ANTIGO         PTSUNNY   69  50  52 NE12G18   30.39F
SHAWANO        MOSUNNY   73  53  49 NE8       30.35F
OCONTO         NOT AVBL
STURGEON BAY   SUNNY     69  53  56 NE15G25   30.35S
GREEN BAY      SUNNY     68  54  60 NE20G29   30.34S
MANITOWOC      NOT AVBL
APPLETON       MOSUNNY   70  43  37 NE20G28   30.32F
CLINTONVILLE   MOSUNNY   72  50  46 NE10G17   30.34F
OSHKOSH        SUNNY     69  54  58 N20G28    30.31F
$$

WIZ032>034-041-042-053>061-292200-
SOUTHWEST WISCONSIN

CITY           SKY/WX    TMP DP  RH WIND       PRES   REMARKS
LA CROSSE      SUNNY     74  53  48 N9        30.34F
SPARTA         SUNNY     72  51  48 N10G16    30.35F
VIROQUA        SUNNY     71  49  45 NE7G16    30.34F
BOSCOBEL       SUNNY     76  50  40 NE9G20    30.29F
PRAIRIE DU CHI SUNNY     73  44  34 NE8       30.29F
PLATTEVILLE    SUNNY     73  49  43 NE13G23   30.28S
$$

WIZ056-057-062-063-064-067-068-292200-
SOUTH CENTRAL WISCONSIN

CITY           SKY/WX    TMP DP  RH WIND       PRES   REMARKS
REEDSBURG      NOT AVBL
BARABOO/DELLS  SUNNY     72  44  36 NE17G23   30.30F
LONE ROCK      NOT AVBL
MINERAL POINT  SUNNY     72  45  37 NE14G22   30.28F
MADISON        MOSUNNY   71  51  49 NE18G30   30.27F
MIDDLETON      MOSUNNY   73  51  46 NE15G26   30.28F
WATERTOWN      SUNNY     69  53  55 NE15G25   30.26F
MONROE         CLOUDY    70  52  52 N17G25    30.25S
JANESVILLE     CLOUDY    68  54  60 NE15G216  30.24S
$$

WIZ051-052-058>065-066-070>072-292200-
SOUTHEAST WISCONSIN

CITY           SKY/WX    TMP DP  RH WIND       PRES   REMARKS
MILWAUKEE      CLOUDY    64  58  80 N21G28    30.26S
WAUKESHA       CLOUDY    64  52  63 NE17G25   30.27F
MILWAUKEE/TIMM CLOUDY    64  54  68 NE12G30   30.27S
RACINE         CLOUDY    62  57  83 N13G24    30.26S
BURLINGTON     CLOUDY    63  53  71 NE14      30.25S
KENOSHA        CLOUDY    63  58  83 N13       30.24S
FOND DU LAC    SUNNY     69  56  62 N20G28    30.30F
SHEBOYGAN      SUNNY     66  58  75 NE17G28   30.29F
WEST BEND      SUNNY     72  61  68 NE17G25   30.28R
JUNEAU         SUNNY     69  49  49 NE17G32   30.28F
$$

LSZ147-162-292200-
LAKE SUPERIOR

STATION/POSITION TIME  TEMP    WIND        PRES    WAVE
                       AIR SEA DIR/SP/G            HT/PER
                 (UTC) (F)     (DEG/KT/KT) (MB)    (FT/S)
W MID LAKE BUOY  1950   56 55   30/  4/  6 1032.9F   1/ 5
DEVILS ISLAND    2000   54      50/  9/ 10 1033.5F
SAXON HARBOR     2000   57      30/ 11/ 14 1032.2
$$

LMZ867-665-643>646-292200-
LAKE MICHIGAN

STATION/POSITION TIME  TEMP    WIND        PRES    WAVE
                       AIR SEA DIR/SP/G            HT/PER
                 (UTC) (F)     (DEG/KT/KT) (MB)    (FT/S)
CHAMBERS ISLAND  2000   63      20/ 10/ 13 1027.8F
S GREEN BAY BUOY 2000   64 63   40/ 17/ 21 1027.1F
N MID LAKE BUOY  1950   63 66   40/ 16/ 19 1027.4F   3/ 5
NORTHPORT PIER   1900   66      50/ 11/ 16 1028.1F
SISTER BAY       2023   73     360/ 15/ 20   N/A
KEWAUNEE LAKESHO 2000   64      20/  7/ 15 1026.7F
SHEBOYGAN LAKESH 2000   61      10/ 24/ 26 1025.4F
PORT WASHINGTON  2000   65      30/ 16/ 23 1025.4S
ATWATER BUOY     2000   57 52   20/ 16/ 21 1024.3S
MILWAUKEE LAKESH 2010   61     350/ 20/ 23   N/A
S MID LAKE BUOY  1950   64 69   60/ 23/ 27 1022.2F   7/ 8
KENOSHA   LAKESH 2000   60      10/ 24/ 27 1023.0F
$$

TC  - TEMPERATURE IN CELSIUS
VSB - VISIBILITY IN STATUTE MILES
WCI - WIND CHILL INDEX
HX  - HEAT INDEX





USA.gov is the U.S. government's official web portal to all federal, state and local government web resources and services.